TimeCDT,TemperatureF,Dew PointF,Humidity,Sea Level PressureIn,VisibilityMPH,Wind Direction,Wind SpeedMPH,Gust SpeedMPH,PrecipitationIn,Events,Conditions,WindDirDegrees,DateUTC
12:52 AM,66.0,60.1,81,30.08,10.0,NNW,4.6,-,N/A,,Scattered Clouds,330,2013-08-13 05:52:00
1:52 AM,64.0,59.0,84,30.09,10.0,NW,5.8,-,N/A,,Scattered Clouds,320,2013-08-13 06:52:00
2:52 AM,63.0,59.0,87,30.09,10.0,North,3.5,-,N/A,,Mostly Cloudy,350,2013-08-13 07:52:00
3:52 AM,63.0,57.9,84,30.09,10.0,North,4.6,-,N/A,,Scattered Clouds,350,2013-08-13 08:52:00
4:52 AM,60.1,57.9,93,30.09,10.0,North,4.6,-,N/A,,Mostly Cloudy,350,2013-08-13 09:52:00
5:52 AM,60.1,57.0,90,30.09,10.0,NNW,4.6,-,N/A,,Mostly Cloudy,340,2013-08-13 10:52:00
6:52 AM,59.0,57.0,93,30.11,10.0,NNW,3.5,-,N/A,,Mostly Cloudy,330,2013-08-13 11:52:00
7:52 AM,62.1,57.9,86,30.12,10.0,North,5.8,-,N/A,,Mostly Cloudy,360,2013-08-13 12:52:00
8:52 AM,66.0,59.0,78,30.14,10.0,North,5.8,-,N/A,,Mostly Cloudy,360,2013-08-13 13:52:00
9:52 AM,68.0,59.0,73,30.15,10.0,NNW,4.6,-,N/A,,Mostly Cloudy,340,2013-08-13 14:52:00
10:52 AM,73.9,57.9,57,30.17,10.0,Calm,Calm,-,N/A,,Overcast,0,2013-08-13 15:52:00
11:52 AM,77.0,55.9,48,30.17,10.0,NE,8.1,-,N/A,,Overcast,40,2013-08-13 16:52:00
12:52 PM,75.9,57.0,52,30.16,10.0,North,5.8,-,N/A,,Mostly Cloudy,350,2013-08-13 17:52:00
1:52 PM,80.1,55.9,43,30.15,10.0,Variable,4.6,-,N/A,,Mostly Cloudy,0,2013-08-13 18:52:00
2:52 PM,80.1,54.0,40,30.13,10.0,NE,8.1,-,N/A,,Mostly Cloudy,40,2013-08-13 19:52:00
3:52 PM,82.0,55.0,39,30.11,10.0,Variable,5.8,-,N/A,,Mostly Cloudy,0,2013-08-13 20:52:00
4:52 PM,82.0,52.0,35,30.11,10.0,NNE,10.4,-,N/A,,Mostly Cloudy,30,2013-08-13 21:52:00
5:52 PM,80.1,54.0,40,30.10,10.0,NE,8.1,-,N/A,,Mostly Cloudy,40,2013-08-13 22:52:00
6:52 PM,79.0,54.0,42,30.10,10.0,NE,4.6,-,N/A,,Mostly Cloudy,40,2013-08-13 23:52:00
7:52 PM,75.9,55.9,50,30.10,10.0,NE,3.5,-,N/A,,Mostly Cloudy,50,2013-08-14 00:52:00
8:52 PM,70.0,59.0,68,30.12,10.0,NNE,4.6,-,N/A,,Mostly Cloudy,30,2013-08-14 01:52:00
9:52 PM,66.0,59.0,78,30.14,10.0,North,4.6,-,N/A,,Mostly Cloudy,360,2013-08-14 02:52:00
10:52 PM,66.0,57.9,75,30.14,10.0,WNW,3.5,-,N/A,,Partly Cloudy,300,2013-08-14 03:52:00
11:52 PM,63.0,57.0,81,30.15,10.0,NNW,4.6,-,N/A,,Partly Cloudy,330,2013-08-14 04:52:00